When you browse on this site, cookies collect data to enhance your experience and personalize the content and advertising you see.
Visit our Privacy Policy to learn more. By continuing to use the site, you agree to this use of cookies and data.
  • In United Kingdom
  • List of Countries
  • For 7 days
  • Water Temperature
  • Weather Map
  • Weather Widgets
  • user-avatar
    Login

    Hourly Weather Navoiy

    Today, 15 September, Sunday

    Time Temperature Precipitation Wind Pressure Humidity
    00:00 +18°C° 0 mm 2 mps 728 mmHg 31%
    01:00 +17°C° 0 mm 2 mps 728 mmHg 33%
    02:00 +16°C° 0 mm 2 mps 728 mmHg 38%
    03:00 +15°C° 0 mm 1 mps 728 mmHg 43%
    04:00 +14°C° 0 mm 1 mps 728 mmHg 46%
    05:00 +18°C° 0 mm 1 mps 728 mmHg 39%
    06:00 +20°C° 0 mm 1 mps 729 mmHg 33%
    07:00 +23°C° 0 mm 1 mps 730 mmHg 26%
    08:00 +25°C° 0 mm 2 mps 730 mmHg 23%
    09:00 +26°C° 0 mm 4 mps 730 mmHg 20%
    10:00 +28°C° 0 mm 5 mps 730 mmHg 18%
    11:00 +28°C° 0 mm 5 mps 730 mmHg 17%
    12:00 +29°C° 0 mm 5 mps 730 mmHg 17%
    13:00 +29°C° 0 mm 5 mps 729 mmHg 16%
    14:00 +29°C° 0 mm 4 mps 729 mmHg 16%
    15:00 +29°C° 0 mm 4 mps 729 mmHg 16%
    16:00 +28°C° 0 mm 3 mps 730 mmHg 16%
    17:00 +26°C° 0 mm 4 mps 730 mmHg 19%
    18:00 +23°C° 0 mm 4 mps 730 mmHg 22%
    19:00 +20°C° 0 mm 4 mps 731 mmHg 25%
    20:00 +20°C° 0 mm 4 mps 731 mmHg 27%
    21:00 +19°C° 0 mm 4 mps 731 mmHg 30%
    22:00 +18°C° 0 mm 4 mps 730 mmHg 32%
    23:00 +17°C° 0 mm 4 mps 730 mmHg 34%

    Tomorrow, 16 September, Monday

    Time Temperature Precipitation Wind Pressure Humidity
    00:00 +16°C° 0 mm 3 mps 730 mmHg 37%
    01:00 +15°C° 0 mm 2 mps 730 mmHg 39%
    02:00 +15°C° 0 mm 2 mps 730 mmHg 43%
    03:00 +14°C° 0 mm 1 mps 730 mmHg 48%
    04:00 +13°C° 0 mm 1 mps 729 mmHg 52%
    05:00 +15°C° 0 mm 1 mps 730 mmHg 45%
    06:00 +18°C° 0 mm 1 mps 731 mmHg 37%
    07:00 +21°C° 0 mm 1 mps 731 mmHg 29%
    08:00 +21°C° 0 mm 2 mps 731 mmHg 26%
    09:00 +24°C° 0 mm 2 mps 731 mmHg 24%
    10:00 +26°C° 0 mm 2 mps 731 mmHg 21%
    11:00 +27°C° 0 mm 3 mps 731 mmHg 19%
    12:00 +27°C° 0 mm 4 mps 730 mmHg 18%
    13:00 +28°C° 0 mm 4 mps 730 mmHg 16%
    14:00 +28°C° 0 mm 5 mps 730 mmHg 17%
    15:00 +28°C° 0 mm 5 mps 730 mmHg 17%
    16:00 +28°C° 0 mm 5 mps 730 mmHg 17%
    17:00 +26°C° 0 mm 5 mps 730 mmHg 20%
    18:00 +22°C° 0 mm 4 mps 730 mmHg 23%
    19:00 +20°C° 0 mm 3 mps 730 mmHg 26%
    20:00 +19°C° 0 mm 4 mps 730 mmHg 28%
    21:00 +19°C° 0 mm 4 mps 730 mmHg 31%
    22:00 +18°C° 0 mm 4 mps 731 mmHg 33%
    23:00 +17°C° 0 mm 4 mps 730 mmHg 35%

    Day after tomorrow, 17 September, Tuesday

    Time Temperature Precipitation Wind Pressure Humidity
    00:00 +17°C° 0 mm 3 mps 730 mmHg 36%
    01:00 +16°C° 0 mm 3 mps 730 mmHg 38%
    02:00 +16°C° 0 mm 3 mps 730 mmHg 39%
    03:00 +15°C° 0 mm 2 mps 730 mmHg 39%
    04:00 +15°C° 0 mm 2 mps 730 mmHg 40%
    05:00 +17°C° 0 mm 2 mps 730 mmHg 36%
    06:00 +18°C° 0 mm 3 mps 730 mmHg 31%
    07:00 +20°C° 0 mm 3 mps 730 mmHg 27%
    08:00 +24°C° 0 mm 3 mps 730 mmHg 23%
    09:00 +26°C° 0 mm 3 mps 730 mmHg 20%
    10:00 +29°C° 0 mm 4 mps 730 mmHg 16%
    11:00 +30°C° 0 mm 3 mps 730 mmHg 14%
    12:00 +31°C° 0 mm 2 mps 729 mmHg 12%
    13:00 +32°C° 0 mm 1 mps 729 mmHg 10%
    14:00 +32°C° 0 mm 1 mps 729 mmHg 10%
    15:00 +33°C° 0 mm 1 mps 728 mmHg 10%
    16:00 +34°C° 0 mm 2 mps 728 mmHg 9%
    17:00 +29°C° 0 mm 2 mps 727 mmHg 14%
    18:00 +26°C° 0 mm 2 mps 727 mmHg 18%
    19:00 +21°C° 0 mm 2 mps 727 mmHg 22%
    20:00 +21°C° 0 mm 3 mps 727 mmHg 22%
    21:00 +21°C° 0 mm 3 mps 727 mmHg 21%
    22:00 +21°C° 0 mm 4 mps 726 mmHg 21%
    23:00 +20°C° 0 mm 4 mps 726 mmHg 22%

    18 September, Wednesday

    Time Temperature Precipitation Wind Pressure Humidity
    00:00 +20°C° 0 mm 4 mps 726 mmHg 23%
    01:00 +20°C° 0 mm 4 mps 726 mmHg 24%
    02:00 +19°C° 0 mm 3 mps 726 mmHg 25%
    03:00 +19°C° 0 mm 3 mps 726 mmHg 25%
    04:00 +19°C° 0 mm 3 mps 726 mmHg 26%
    05:00 +20°C° 0 mm 3 mps 726 mmHg 25%
    06:00 +22°C° 0 mm 4 mps 726 mmHg 23%
    07:00 +23°C° 0 mm 4 mps 726 mmHg 21%
    08:00 +27°C° 0 mm 3 mps 726 mmHg 18%
    09:00 +30°C° 0 mm 3 mps 727 mmHg 15%
    10:00 +32°C° 0 mm 2 mps 727 mmHg 12%
    11:00 +34°C° 0 mm 3 mps 726 mmHg 10%
    12:00 +35°C° 0 mm 3 mps 726 mmHg 9%
    13:00 +37°C° 0 mm 3 mps 726 mmHg 7%
    14:00 +37°C° 0 mm 3 mps 726 mmHg 7%
    15:00 +37°C° 0 mm 3 mps 726 mmHg 7%
    16:00 +37°C° 0 mm 2 mps 726 mmHg 7%
    17:00 +32°C° 0 mm 2 mps 726 mmHg 10%
    18:00 +28°C° 0 mm 1 mps 726 mmHg 12%
    19:00 +24°C° 0 mm 1 mps 726 mmHg 15%
    20:00 +23°C° 0 mm 1 mps 726 mmHg 15%
    21:00 +23°C° 0 mm 1 mps 726 mmHg 15%
    22:00 +23°C° 0 mm 1 mps 726 mmHg 15%
    23:00 +23°C° 0 mm 1 mps 726 mmHg 15%

    19 September, Thursday

    Time Temperature Precipitation Wind Pressure Humidity
    00:00 +23°C° 0 mm 1 mps 726 mmHg 15%
    01:00 +23°C° 0 mm 2 mps 726 mmHg 14%
    02:00 +23°C° 0 mm 1 mps 726 mmHg 15%
    03:00 +22°C° 0 mm 1 mps 726 mmHg 16%
    04:00 +22°C° 0 mm 1 mps 726 mmHg 17%
    05:00 +24°C° 0 mm 2 mps 726 mmHg 15%
    06:00 +26°C° 0 mm 2 mps 727 mmHg 13%
    07:00 +28°C° 0 mm 2 mps 727 mmHg 11%
    08:00 +31°C° 0 mm 2 mps 728 mmHg 10%
    09:00 +34°C° 0 mm 2 mps 728 mmHg 8%
    10:00 +35°C° 0 mm 1 mps 728 mmHg 7%
    11:00 +37°C° 0 mm 2 mps 728 mmHg 8%
    12:00 +38°C° 0 mm 3 mps 727 mmHg 8%
    13:00 +39°C° 0 mm 3 mps 727 mmHg 9%
    14:00 +40°C° 0 mm 4 mps 727 mmHg 9%
    15:00 +40°C° 0 mm 4 mps 727 mmHg 9%
    16:00 +40°C° 0 mm 4 mps 727 mmHg 9%
    17:00 +36°C° 0 mm 5 mps 727 mmHg 12%
    18:00 +33°C° 0 mm 5 mps 727 mmHg 14%
    19:00 +29°C° 0 mm 5 mps 727 mmHg 17%
    20:00 +28°C° 0 mm 5 mps 727 mmHg 18%
    21:00 +27°C° 0 mm 4 mps 727 mmHg 18%
    22:00 +26°C° 0 mm 4 mps 727 mmHg 19%
    23:00 +26°C° 0 mm 4 mps 727 mmHg 19%

    20 September, Friday

    Time Temperature Precipitation Wind Pressure Humidity
    00:00 +25°C° 0 mm 4 mps 727 mmHg 19%
    01:00 +25°C° 0 mm 4 mps 727 mmHg 19%
    02:00 +24°C° 0 mm 3 mps 727 mmHg 20%
    03:00 +22°C° 0 mm 3 mps 727 mmHg 22%
    04:00 +22°C° 0 mm 3 mps 726 mmHg 23%
    05:00 +24°C° 0 mm 3 mps 727 mmHg 22%
    06:00 +26°C° 0 mm 3 mps 727 mmHg 20%
    07:00 +27°C° 0 mm 3 mps 727 mmHg 18%
    08:00 +30°C° 0 mm 3 mps 727 mmHg 16%
    09:00 +33°C° 0 mm 3 mps 727 mmHg 14%
    10:00 +36°C° 0 mm 3 mps 727 mmHg 11%
    11:00 +37°C° 0 mm 3 mps 726 mmHg 10%
    12:00 +38°C° 0 mm 3 mps 726 mmHg 9%
    13:00 +39°C° 0 mm 3 mps 725 mmHg 9%
    14:00 +40°C° 0 mm 4 mps 725 mmHg 9%
    15:00 +40°C° 0 mm 5 mps 725 mmHg 9%
    16:00 +40°C° 0 mm 7 mps 725 mmHg 9%
    17:00 +36°C° 0 mm 6 mps 725 mmHg 12%
    18:00 +33°C° 0 mm 6 mps 725 mmHg 14%
    19:00 +29°C° 0 mm 5 mps 725 mmHg 16%
    20:00 +28°C° 0 mm 4 mps 725 mmHg 18%
    21:00 +26°C° 0 mm 3 mps 725 mmHg 19%
    22:00 +25°C° 0 mm 3 mps 724 mmHg 20%
    23:00 +25°C° 0 mm 3 mps 724 mmHg 21%
    Show more